SV1IW Athens current weather conditions

sailwx.info

Wind from 292

Air temperature 26.1° C
Dewpoint 18.5° C

Last reported at 2014-Sep-01 23:30 UTC.
Time now 2014-Sep-03 06:59 UTC

Location: N 37°58' E 023°43'.
View on Google Maps.

See reports from other nearby stations

  
Tides and Currents Weather Stations Pressure Air Temp Water Temp Dewpoint Dewpoint Depression Visibility Wind Speed Wind Dir Waves Ship Positions
date/time (UTC)wind fromknots sea level pressurealtimeterstation pressurevisibilityair tempwater tempwave heightnotes
2014-Sep-01 23:30 292 26.1
2014-Sep-01 23:01 219 1 gusting 5 26.1
2014-Sep-01 22:30 195 2 gusting 5 26.1
2014-Sep-01 22:00 219 1 gusting 4 26.7
2014-Sep-01 21:30 217 2 gusting 5 26.7
2014-Sep-01 21:01 307 2 gusting 5 27.2
2014-Sep-01 20:30 223 1 gusting 5 27.2
2014-Sep-01 20:00 187 2 gusting 5 27.2
2014-Sep-01 19:30 204 2 gusting 5 26.7
2014-Sep-01 19:00 200 2 gusting 7 26.7
2014-Sep-01 18:30 223 4 gusting 6 26.7
2014-Sep-01 18:00 227 4 gusting 7 27.2
2014-Sep-01 17:30 181 5 gusting 8 27.8
2014-Sep-01 17:00 239 4 gusting 8 27.8
2014-Sep-01 16:30 156 5 gusting 10 27.8
2014-Sep-01 16:00 218 6 gusting 12 28.3
2014-Sep-01 15:00 207 4 gusting 12 29.4
2014-Sep-01 14:30 213 5 gusting 11 28.9
2014-Sep-01 14:00 197 6 gusting 12 30.0
2014-Sep-01 13:30 214 5 gusting 11 30.0
2014-Sep-01 13:00 199 5 gusting 11 30.0
2014-Sep-01 12:30 197 6 gusting 10 30.0
2014-Sep-01 12:00 199 4 gusting 10 30.0
2014-Sep-01 11:30 239 5 gusting 10 30.6
2014-Sep-01 11:00 219 5 gusting 8 31.1